Regional Weather Roundup
Issued by NWS San Angelo, TX

Home | Current Version | Previous Version | Text Only | Print | Product List | Glossary On
Versions: 1 2 3 4 5 6 7 8 9 10 11 12 13 14 15 16 17 18 19 20 21 22 23 24 25 26 27 28 29 30 31 32 33 34 35 36 37 38 39 40 41 42 43 44 45 46 47 48 49 50
000
ASUS44 KSJT 292211
RWRSJT
WEST CENTRAL TEXAS REGIONAL WEATHER ROUNDUP
NATIONAL WEATHER SERVICE SAN ANGELO TX
500 PM CDT MON AUG 29 2016

NOTE: "FAIR" INDICATES FEW OR NO CLOUDS BELOW 12,000 FEET WITH NO
SIGNIFICANT WEATHER AND/OR OBSTRUCTIONS TO VISIBILITY.

TXZ049-054-064>066-071>073-076>078-098-099-113-114-127-128-139-140-
154-155-168>170-292300
...LOCATIONS ACROSS WEST CENTRAL TEXAS...

CITY           SKY/WX    TMP DP  RH WIND       PRES   REMARKS
SAN ANGELO     MOSUNNY   89  64  43 E13       30.01F
ABILENE        MOSUNNY   88  64  44 E12G18    30.04F
DYESS AFB      PTSUNNY   89  65  44 E7        30.02F
JUNCTION       SUNNY     90  64  42 NE12      29.99F
SWEETWATER     MOSUNNY   87  60  40 E12       30.09S
BROWNWOOD      MOSUNNY   90  66  45 E15       30.00S
COLEMAN        PTCLDY    89  62  40 E17       30.01F
SONORA         CLOUDY    86  64  48 E9G16     30.05F
OZONA          FAIR      82  63  51 E7        30.05S
BRADY          NOT AVBL
$$

TEXAS PANHANDLE/OKLAHOMA PANHANDLE

CITY           SKY/WX    TMP DP  RH WIND       PRES   REMARKS
AMARILLO       LGT RAIN  65  63  93 S9        30.25R FOG
BORGER         LGT RAIN  70  67  90 W5        30.22S
CANADIAN       PTSUNNY   79  68  69 NW10      30.15R
DALHART        CLOUDY    71  62  73 SE14      30.26S
DUMAS          LGT RAIN  67  65  92 SE5       30.25S
GUYMON         NOT AVBL
HEREFORD       DRIZZLE   69  65  89 E6        30.24F
PAMPA          RAIN      70  67  89 NW5       30.22S
PERRYTON       CLOUDY    71  68  92 N5        30.20S
$$

SOUTHERN PANHANDLE/SOUTH PLAINS/ROLLING PLAINS

CITY           SKY/WX    TMP DP  RH WIND       PRES   REMARKS
LUBBOCK        LGT RAIN  70  68  93 N10       30.15F
SNYDER           N/A     86  63  45 E13G18    30.07F
CHILDRESS      CLOUDY    86  64  47 VRB5G17   30.08F
SEMINOLE       RAIN      67  65  96 CALM      30.18S
$$

PERMIAN BASIN

CITY           SKY/WX    TMP DP  RH WIND       PRES   REMARKS
MIDLAND        CLOUDY    73  67  81 NW8       30.11R
ODESSA         LGT RAIN  70  66  87 NW8       30.13R FOG
WINK           CLOUDY    79  63  57 NE18G28   30.08S
$$

FAR WEST/SOUTHWEST MOUNTAINS/TRANS PECOS

CITY           SKY/WX    TMP DP  RH WIND       PRES   REMARKS
ALPINE         CLOUDY    76  61  58 NE8G18    30.20F
DRYDEN           N/A     82  69  64 SE8       30.01F
EL PASO        PTSUNNY   86  57  37 E9G16     30.08F
FORT STOCKTON  CLOUDY    71  65  81 E18       30.10R
GUADALUPE PASS MOSUNNY   73  56  54 NE21G26   30.23S
MARFA          CLOUDY   N/A N/A N/A NE10      30.18F
PECOS          PTCLDY    85  59  42 N7        30.06F
$$

DALLAS/FORT WORTH METROPLEX

CITY           SKY/WX    TMP DP  RH WIND       PRES   REMARKS
DFW AIRPORT    CLOUDY    84  72  67 N5        29.99S
FTW MEACHAM    LGT RAIN  78  72  81 NW6       29.99F
DAL-EXECUTIVE  CLOUDY    82  75  79 N5        29.99S
GRAND PRAIRIE  SUNNY     82  72  69 N3        30.01F
ADDISON        PTSUNNY   86  70  58 S3        30.00S
MESQUITE       MOCLDY    84  72  65 SW3       29.98F
LANCASTER      PTCLDY    86  74  67 NW5       29.99F
$$

NORTH CENTRAL TEXAS

CITY           SKY/WX    TMP DP  RH WIND       PRES   REMARKS
SHRMAN/DENISON PTCLDY    92  71  51 E10       30.01F
GAINESVILLE      N/A     91  69  48 E8        30.02F
BRIDGEPORT     RAIN      74  71  88 N5        30.06R
DENTON         CLOUDY    78  72  81 NE8       30.00F
WAXAHACHIE     CLOUDY    79  76  92 N3        30.00S
GRANBURY       CLOUDY    82  70  67 N6        30.02S
$$

WESTERN NORTH TEXAS

CITY           SKY/WX    TMP DP  RH WIND       PRES   REMARKS
WICHITA FALLS  MOSUNNY   92  61  35 E10       30.01F
VERNON         CLEAR     92  54  26 E8        30.05S
BRECKENRIDGE   MOCLDY    90  65  43 NE12G18   30.01S
COMANCHE       MOSUNNY   85  70  61 NE13G18   30.02R
$$

CENTRAL AND SOUTH CENTRAL TEXAS

CITY           SKY/WX    TMP DP  RH WIND       PRES   REMARKS
AUSTIN/BERGSTM PTSUNNY   90  72  55 NE13      29.91F
WACO           MOSUNNY   91  72  53 E12       29.95S
HILLSBORO      CLOUDY    83  72  70 N14       29.98F
TEMPLE         PTSUNNY   87  70  56 E14       29.95S
KILLEEN-GRAY   MOSUNNY   89  69  50 NE16      29.95S
FORT HOOD      PTSUNNY   88  68  51 E13       29.93F
GEORGETOWN     MOSUNNY   90  70  51 E14       29.93F
LAGO VISTA     FAIR      89  68  49 E9G17     29.97S
SAN MARCOS       N/A     90  72  55 NE14      29.93F
NEW BRAUNFELS  MOSUNNY   90  72  55 NE15      29.90F
RANDOLPH AFB   MOSUNNY   88  73  60 NE10      29.91F
SAN ANTONIO    MOSUNNY   88  71  57 NE13G21   29.92F
STINSON        LGT RAIN  91  69  48 E13G20    29.89F
PLEASANTON     NOT AVBL
LA GRANGE      LGT RAIN  80  77  91 SE6       29.91R
GIDDINGS       CLOUDY    83  75  78 E12       29.97S
$$

EAST TEXAS

CITY           SKY/WX    TMP DP  RH WIND       PRES   REMARKS
PARIS          MOSUNNY   90  72  55 SE10      30.00S
CLARKSVILLE    NOT AVBL
TYLER          CLOUDY    91  73  55 NE10      29.97S
LONGVIEW       CLOUDY    88  75  65 NE9       29.96F
PALESTINE      CLOUDY    76  75  95 SE3       29.99S
NACOGDOCHES    CLOUDY   N/A N/A N/A CALM      29.94R
$$

TEXAS HILL COUNTRY AND EDWARDS PLATEAU

CITY           SKY/WX    TMP DP  RH WIND       PRES   REMARKS
LLANO          PTCLDY    90  73  58 E13       29.99F
HORSESHOE BAY  FAIR      89  68  49 SE6       29.96S
KERRVILLE      MOSUNNY   86  71  60 E5        29.98F
FREDERICKSBRG  MOSUNNY   85  66  54 NE8G16    29.98F
ROCKSPRINGS    CLEAR     88  64  45 E7        30.03F
HONDO          MOSUNNY   89  68  49 E16       29.93F
UVALDE         PTCLDY    87  71  58 E15       29.94F
DEL RIO        CLOUDY    76  73  91 W12       29.94F
$$

SOUTHEAST TEXAS

CITY           SKY/WX    TMP DP  RH WIND       PRES   REMARKS
COLLEGE STN    RAIN      77  74  90 NE15      29.96R
CALDWELL       HVY RAIN  79  73  83 E13G29    30.00R VSB 1/4
CROCKETT       LGT RAIN  75  75 100 S8        30.01R
BRENHAM        LGT RAIN  77  74  92 E9        29.95F
HUNTSVILLE     CLOUDY    75  73  93 NE3       29.97F
CONROE         CLOUDY    82  76  81 CALM      29.96S
HOUSTON BUSH   CLOUDY    80  74  81 N3        29.93F
HOUSTON HOBBY  CLOUDY    82  75  79 NE9       29.91F
PERLAND        CLOUDY    83  76  79 NE10      29.92F
WHARTON        CLOUDY    85  72  64 E13G18    29.90F
$$

THE UPPER TEXAS COAST

CITY           SKY/WX    TMP DP  RH WIND       PRES   REMARKS
ORANGE         PTCLDY    87  69  54 SE8       29.94R
PORT ARTHUR    MOSUNNY   88  73  61 E13       29.92R
GALVESTON      CLOUDY    83  76  79 NE12      29.91S
ANGLETON       CLOUDY    84  76  76 NE8       29.89F
BAY CITY       MOCLDY    86  76  71 E12G18    29.88F HAZE
$$

TEXAS COASTAL BEND, RIO GRANDE PLAINS DEEP SOUTH TEXAS

CITY           SKY/WX    TMP DP  RH WIND       PRES   REMARKS
VICTORIA       PTSUNNY   82  75  79 NE13      29.88F
BEEVILLE       LGT RAIN  82  78  87 E7G17     29.88S
ROCKPORT       NOT AVBL
PORT ARANSAS   PTCLDY    86  76  72 NE14G22   29.86F
PORT LAVACA    CLOUDY    80  77  92 NE13      29.88S
CORPUS CHRISTI LGT RAIN  87  76  69 E16       29.85F
KINGSVILLE NAS PTSUNNY   88  75  65 NE15      29.84F
COTULLA        MOSUNNY   89  71  55 NE10      29.90F
LAREDO         MOSUNNY   92  70  48 N10       29.88F
BROWNSVILLE    MOSUNNY   93  74  53 NE17      29.82F
PORT ISABEL    SUNNY     91  75  59 NE16G25   29.82F
HEBBRONVILLE   PTCLDY    91  68  47 N9        29.88F
MCALLEN        MOSUNNY  100  68  35 N12G17    29.82F
WESLACO        SUNNY     92  16   6 NE12      29.81F
FALFURRIAS     MOCLDY    92  70  48 NE10G16   29.84F
EDINBURG       CLEAR     98  64  33 N13G18    29.82F
$$




USA.gov is the U.S. government's official web portal to all federal, state and local government web resources and services.